Year,Month,Day,Hour,Minute,Value (Times are PST for temperature in C)
2011,03,31,00,00,6.80
2011,03,31,00,01,6.80
2011,03,31,00,02,6.80
2011,03,31,00,03,6.80
2011,03,31,00,04,6.80
2011,03,31,00,05,6.80
2011,03,31,00,06,6.80
2011,03,31,00,07,6.80
2011,03,31,00,08,6.80
2011,03,31,00,09,6.80
2011,03,31,00,10,6.80
2011,03,31,00,11,6.80
2011,03,31,00,12,6.80
2011,03,31,00,13,6.80
2011,03,31,00,14,6.80
2011,03,31,00,15,6.80
2011,03,31,00,16,6.90
2011,03,31,00,17,6.90
2011,03,31,00,18,6.90
2011,03,31,00,19,6.90
2011,03,31,00,20,6.90
2011,03,31,00,21,6.90
2011,03,31,00,22,6.90
2011,03,31,00,23,6.90
2011,03,31,00,24,6.90
2011,03,31,00,25,6.90
2011,03,31,00,26,6.90
2011,03,31,00,27,6.90
2011,03,31,00,28,6.90
2011,03,31,00,29,6.90
2011,03,31,00,30,6.90
2011,03,31,00,31,6.90
2011,03,31,00,32,7.00
2011,03,31,00,33,7.00
2011,03,31,00,34,7.00
2011,03,31,00,35,7.00
2011,03,31,00,36,7.00
2011,03,31,00,37,7.00
2011,03,31,00,38,7.00
2011,03,31,00,39,7.00
2011,03,31,00,40,7.00
2011,03,31,00,41,7.00
2011,03,31,00,42,7.00
2011,03,31,00,43,7.00
2011,03,31,00,44,7.00
2011,03,31,00,45,7.00
2011,03,31,00,46,7.00
2011,03,31,00,47,7.00
2011,03,31,00,48,7.00
2011,03,31,00,49,7.10
2011,03,31,00,50,7.00
2011,03,31,00,51,7.10
2011,03,31,00,52,7.10
2011,03,31,00,53,7.00
2011,03,31,00,54,7.00
2011,03,31,00,55,7.00
2011,03,31,00,56,7.00
2011,03,31,00,57,7.00
2011,03,31,00,58,7.00
2011,03,31,00,59,7.00
2011,03,31,01,00,7.00
2011,03,31,01,01,7.00
2011,03,31,01,02,7.00
2011,03,31,01,03,7.00
2011,03,31,01,04,7.00
2011,03,31,01,05,7.00
2011,03,31,01,06,7.00
2011,03,31,01,07,7.00
2011,03,31,01,08,7.00
2011,03,31,01,09,7.00
2011,03,31,01,10,7.00
2011,03,31,01,11,7.10
2011,03,31,01,12,7.10
2011,03,31,01,13,7.10
2011,03,31,01,14,7.10
2011,03,31,01,15,7.10
2011,03,31,01,16,7.10
2011,03,31,01,17,7.10
2011,03,31,01,18,7.10
2011,03,31,01,19,7.10
2011,03,31,01,20,7.10
2011,03,31,01,21,7.10
2011,03,31,01,22,7.10
2011,03,31,01,23,7.10
2011,03,31,01,24,7.10
2011,03,31,01,25,7.10
2011,03,31,01,26,7.10
2011,03,31,01,27,7.10
2011,03,31,01,28,7.10
2011,03,31,01,29,7.10
2011,03,31,01,30,7.10
2011,03,31,01,31,7.10
2011,03,31,01,32,7.10
2011,03,31,01,33,7.10
2011,03,31,01,34,7.10
2011,03,31,01,35,7.10
2011,03,31,01,36,7.10
2011,03,31,01,37,7.10
2011,03,31,01,38,7.10
2011,03,31,01,39,7.10
2011,03,31,01,40,7.10
2011,03,31,01,41,7.10
2011,03,31,01,42,7.10
2011,03,31,01,43,7.20
2011,03,31,01,44,7.10
2011,03,31,01,45,7.10
2011,03,31,01,46,7.10
2011,03,31,01,47,7.10
2011,03,31,01,48,7.10
2011,03,31,01,49,7.10
2011,03,31,01,50,7.10
2011,03,31,01,51,7.10
2011,03,31,01,52,7.10
2011,03,31,01,53,7.10
2011,03,31,01,54,7.10
2011,03,31,01,55,7.10
2011,03,31,01,56,7.10
2011,03,31,01,57,7.10
2011,03,31,01,58,7.10
2011,03,31,01,59,7.10
2011,03,31,02,00,7.10
2011,03,31,02,01,7.10
2011,03,31,02,02,7.10
2011,03,31,02,03,7.20
2011,03,31,02,04,7.20
2011,03,31,02,05,7.20
2011,03,31,02,06,7.20
2011,03,31,02,07,7.20
2011,03,31,02,08,7.20
2011,03,31,02,09,7.20
2011,03,31,02,10,7.20
2011,03,31,02,11,7.20
2011,03,31,02,12,7.20
2011,03,31,02,13,7.20
2011,03,31,02,14,7.20
2011,03,31,02,15,7.20
2011,03,31,02,16,7.20
2011,03,31,02,17,7.20
2011,03,31,02,18,7.20
2011,03,31,02,19,7.20
2011,03,31,02,20,7.20
2011,03,31,02,21,7.20
2011,03,31,02,22,7.20
2011,03,31,02,23,7.20
2011,03,31,02,24,7.20
2011,03,31,02,25,7.20
2011,03,31,02,26,7.20
2011,03,31,02,27,7.30
2011,03,31,02,28,7.20
2011,03,31,02,29,7.30
2011,03,31,02,30,7.30
2011,03,31,02,31,7.30
2011,03,31,02,32,7.30
2011,03,31,02,33,7.30
2011,03,31,02,34,7.30
2011,03,31,02,35,7.20
2011,03,31,02,36,7.20
2011,03,31,02,37,7.20
2011,03,31,02,38,7.20
2011,03,31,02,39,7.20
2011,03,31,02,40,7.20
2011,03,31,02,41,7.20
2011,03,31,02,42,7.20
2011,03,31,02,43,7.20
2011,03,31,02,44,7.20
2011,03,31,02,45,7.20
2011,03,31,02,46,7.20
2011,03,31,02,47,7.20
2011,03,31,02,48,7.20
2011,03,31,02,49,7.20
2011,03,31,02,50,7.20
2011,03,31,02,51,7.20
2011,03,31,02,52,7.20
2011,03,31,02,53,7.20
2011,03,31,02,54,7.20
2011,03,31,02,55,7.20
2011,03,31,02,56,7.20
2011,03,31,02,57,7.20
2011,03,31,02,58,7.20
2011,03,31,02,59,7.20
2011,03,31,03,00,7.20
2011,03,31,03,01,7.20
2011,03,31,03,02,7.20
2011,03,31,03,03,7.20
2011,03,31,03,04,7.20
2011,03,31,03,05,7.30
2011,03,31,03,06,7.30
2011,03,31,03,07,7.30
2011,03,31,03,08,7.30
2011,03,31,03,09,7.30
2011,03,31,03,10,7.30
2011,03,31,03,11,7.30
2011,03,31,03,12,7.30
2011,03,31,03,13,7.30
2011,03,31,03,14,7.30
2011,03,31,03,15,7.30
2011,03,31,03,16,7.30
2011,03,31,03,17,7.30
2011,03,31,03,18,7.30
2011,03,31,03,19,7.30
2011,03,31,03,20,7.30
2011,03,31,03,21,7.30
2011,03,31,03,22,7.30
2011,03,31,03,23,7.30
2011,03,31,03,24,7.30
2011,03,31,03,25,7.30
2011,03,31,03,26,7.30
2011,03,31,03,27,7.30
2011,03,31,03,28,7.30
2011,03,31,03,29,7.30
2011,03,31,03,30,7.30
2011,03,31,03,31,7.30
2011,03,31,03,32,7.30
2011,03,31,03,33,7.30
2011,03,31,03,34,7.30
2011,03,31,03,35,7.30
2011,03,31,03,36,7.30
2011,03,31,03,37,7.30
2011,03,31,03,38,7.30
2011,03,31,03,39,7.30
2011,03,31,03,40,7.30
2011,03,31,03,41,7.30
2011,03,31,03,42,7.30
2011,03,31,03,43,7.30
2011,03,31,03,44,7.30
2011,03,31,03,45,7.30
2011,03,31,03,46,7.30
2011,03,31,03,47,7.30
2011,03,31,03,48,7.30
2011,03,31,03,49,7.30
2011,03,31,03,50,7.30
2011,03,31,03,51,7.30
2011,03,31,03,52,7.30
2011,03,31,03,53,7.30
2011,03,31,03,54,7.30
2011,03,31,03,55,7.30
2011,03,31,03,56,7.30
2011,03,31,03,57,7.30
2011,03,31,03,58,7.30
2011,03,31,03,59,7.30
2011,03,31,04,00,7.30
2011,03,31,04,01,7.30
2011,03,31,04,02,7.30
2011,03,31,04,03,7.30
2011,03,31,04,04,7.30
2011,03,31,04,05,7.30
2011,03,31,04,06,7.30
2011,03,31,04,07,7.30
2011,03,31,04,08,7.20
2011,03,31,04,09,7.30
2011,03,31,04,10,7.30
2011,03,31,04,11,7.30
2011,03,31,04,12,7.30
2011,03,31,04,13,7.30
2011,03,31,04,14,7.30
2011,03,31,04,15,7.30
2011,03,31,04,16,7.30
2011,03,31,04,17,7.30
2011,03,31,04,18,7.30
2011,03,31,04,19,7.30
2011,03,31,04,20,7.30
2011,03,31,04,21,7.30
2011,03,31,04,22,7.30
2011,03,31,04,23,7.30
2011,03,31,04,24,7.30
2011,03,31,04,25,7.30
2011,03,31,04,26,7.30
2011,03,31,04,27,7.30
2011,03,31,04,28,7.30
2011,03,31,04,29,7.30
2011,03,31,04,30,7.30
2011,03,31,04,31,7.30
2011,03,31,04,32,7.30
2011,03,31,04,33,7.30
2011,03,31,04,34,7.30
2011,03,31,04,35,7.30
2011,03,31,04,36,7.30
2011,03,31,04,37,7.30
2011,03,31,04,38,7.30
2011,03,31,04,39,7.30
2011,03,31,04,40,7.30
2011,03,31,04,41,7.20
2011,03,31,04,42,7.20
2011,03,31,04,43,7.20
2011,03,31,04,44,7.20
2011,03,31,04,45,7.30
2011,03,31,04,46,7.20
2011,03,31,04,47,7.30
2011,03,31,04,48,7.20
2011,03,31,04,49,7.20
2011,03,31,04,50,7.20
2011,03,31,04,51,7.20
2011,03,31,04,52,7.20
2011,03,31,04,53,7.20
2011,03,31,04,54,7.30
2011,03,31,04,55,7.30
2011,03,31,04,56,7.30
2011,03,31,04,57,7.30
2011,03,31,04,58,7.20
2011,03,31,04,59,7.20
2011,03,31,05,00,7.20
2011,03,31,05,01,7.20
2011,03,31,05,02,7.20
2011,03,31,05,03,7.20
2011,03,31,05,04,7.20
2011,03,31,05,05,7.20
2011,03,31,05,06,7.20
2011,03,31,05,07,7.20
2011,03,31,05,08,7.20
2011,03,31,05,09,7.20
2011,03,31,05,10,7.20
2011,03,31,05,11,7.20
2011,03,31,05,12,7.20
2011,03,31,05,13,7.20
2011,03,31,05,14,7.20
2011,03,31,05,15,7.20
2011,03,31,05,16,7.20
2011,03,31,05,17,7.20
2011,03,31,05,18,7.20
2011,03,31,05,19,7.20
2011,03,31,05,20,7.20
2011,03,31,05,21,7.20
2011,03,31,05,22,7.20
2011,03,31,05,23,7.20
2011,03,31,05,24,7.20
2011,03,31,05,25,7.20
2011,03,31,05,26,7.20
2011,03,31,05,27,7.20
2011,03,31,05,28,7.20
2011,03,31,05,29,7.20
2011,03,31,05,30,7.20
2011,03,31,05,31,7.20
2011,03,31,05,32,7.20
2011,03,31,05,33,7.20
2011,03,31,05,34,7.20
2011,03,31,05,35,7.20
2011,03,31,05,36,7.20
2011,03,31,05,37,7.20
2011,03,31,05,38,7.20
2011,03,31,05,39,7.20
2011,03,31,05,40,7.20
2011,03,31,05,41,7.20
2011,03,31,05,42,7.10
2011,03,31,05,43,7.10
2011,03,31,05,44,7.10
2011,03,31,05,45,7.10
2011,03,31,05,46,7.10
2011,03,31,05,47,7.10
2011,03,31,05,48,7.10
2011,03,31,05,49,7.10
2011,03,31,05,50,7.10
2011,03,31,05,51,7.10
2011,03,31,05,52,7.10
2011,03,31,05,53,7.10
2011,03,31,05,54,7.10
2011,03,31,05,55,7.10
2011,03,31,05,56,7.10
2011,03,31,05,57,7.10
2011,03,31,05,58,7.10
2011,03,31,05,59,7.10
2011,03,31,06,00,7.10
2011,03,31,06,01,7.10
2011,03,31,06,02,7.10
2011,03,31,06,03,7.10
2011,03,31,06,04,7.10
2011,03,31,06,05,7.10
2011,03,31,06,06,7.10
2011,03,31,06,07,7.10
2011,03,31,06,08,7.20
2011,03,31,06,09,7.20
2011,03,31,06,10,7.20
2011,03,31,06,11,7.20
2011,03,31,06,12,7.30
2011,03,31,06,13,7.30
2011,03,31,06,14,7.30
2011,03,31,06,15,7.40
2011,03,31,06,16,7.40
2011,03,31,06,17,7.40
2011,03,31,06,18,7.50
2011,03,31,06,19,7.50
2011,03,31,06,20,7.60
2011,03,31,06,21,7.60
2011,03,31,06,22,7.60
2011,03,31,06,23,7.60
2011,03,31,06,24,7.60
2011,03,31,06,25,7.70
2011,03,31,06,26,7.70
2011,03,31,06,27,7.70
2011,03,31,06,28,7.70
2011,03,31,06,29,7.70
2011,03,31,06,30,7.70
2011,03,31,06,31,7.70
2011,03,31,06,32,7.70
2011,03,31,06,33,7.70
2011,03,31,06,34,7.80
2011,03,31,06,35,7.80
2011,03,31,06,36,7.90
2011,03,31,06,37,7.90
2011,03,31,06,38,7.90
2011,03,31,06,39,8.00
2011,03,31,06,40,8.00
2011,03,31,06,41,8.00
2011,03,31,06,42,8.00
2011,03,31,06,43,8.00
2011,03,31,06,44,8.00
2011,03,31,06,45,8.00
2011,03,31,06,46,7.90
2011,03,31,06,47,7.90
2011,03,31,06,48,7.90
2011,03,31,06,49,7.90
2011,03,31,06,50,7.80
2011,03,31,06,51,7.80
2011,03,31,06,52,7.80
2011,03,31,06,53,7.80
2011,03,31,06,54,7.80
2011,03,31,06,55,7.90
2011,03,31,06,56,8.00
2011,03,31,06,57,8.10
2011,03,31,06,58,8.10
2011,03,31,06,59,8.10
2011,03,31,07,00,8.20
2011,03,31,07,01,8.20
2011,03,31,07,02,8.20
2011,03,31,07,03,8.20
2011,03,31,07,04,8.20
2011,03,31,07,05,8.20
2011,03,31,07,06,8.20
2011,03,31,07,07,8.20
2011,03,31,07,08,8.20
2011,03,31,07,09,8.20
2011,03,31,07,10,8.20
2011,03,31,07,11,8.30
2011,03,31,07,12,8.30
2011,03,31,07,13,8.30
2011,03,31,07,14,8.30
2011,03,31,07,15,8.40
2011,03,31,07,16,8.40
2011,03,31,07,17,8.40
2011,03,31,07,18,8.40
2011,03,31,07,19,8.50
2011,03,31,07,20,8.60
2011,03,31,07,21,8.60
2011,03,31,07,22,8.70
2011,03,31,07,23,8.80
2011,03,31,07,24,8.80
2011,03,31,07,25,8.90
2011,03,31,07,26,9.00
2011,03,31,07,27,9.00
2011,03,31,07,28,9.10
2011,03,31,07,29,9.10
2011,03,31,07,30,9.20
2011,03,31,07,31,9.20
2011,03,31,07,32,9.20
2011,03,31,07,33,9.30
2011,03,31,07,34,9.30
2011,03,31,07,35,9.30
2011,03,31,07,36,9.30
2011,03,31,07,37,9.30
2011,03,31,07,38,9.30
2011,03,31,07,39,9.30
2011,03,31,07,40,9.30
2011,03,31,07,41,9.30
2011,03,31,07,42,9.30
2011,03,31,07,43,9.20
2011,03,31,07,44,9.20
2011,03,31,07,45,9.20
2011,03,31,07,46,9.20
2011,03,31,07,47,9.10
2011,03,31,07,48,9.00
2011,03,31,07,49,9.00
2011,03,31,07,50,8.90
2011,03,31,07,51,8.80
2011,03,31,07,52,8.80
2011,03,31,07,53,8.70
2011,03,31,07,54,8.60
2011,03,31,07,55,8.50
2011,03,31,07,56,8.50
2011,03,31,07,57,8.40
2011,03,31,07,58,8.30
2011,03,31,07,59,8.30
2011,03,31,08,00,8.30
2011,03,31,08,01,8.30
2011,03,31,08,02,8.20
2011,03,31,08,03,8.20
2011,03,31,08,04,8.20
2011,03,31,08,05,8.20
2011,03,31,08,06,8.20
2011,03,31,08,07,8.20
2011,03,31,08,08,8.20
2011,03,31,08,09,8.20
2011,03,31,08,10,8.20
2011,03,31,08,11,8.30
2011,03,31,08,12,8.40
2011,03,31,08,13,8.50
2011,03,31,08,14,8.60
2011,03,31,08,15,8.60
2011,03,31,08,16,8.70
2011,03,31,08,17,8.70
2011,03,31,08,18,8.80
2011,03,31,08,19,8.80
2011,03,31,08,20,8.80
2011,03,31,08,21,8.90
2011,03,31,08,22,8.90
2011,03,31,08,23,8.90
2011,03,31,08,24,9.00
2011,03,31,08,25,9.00
2011,03,31,08,26,9.00
2011,03,31,08,27,9.10
2011,03,31,08,28,9.10
2011,03,31,08,29,9.10
2011,03,31,08,30,9.10
2011,03,31,08,31,9.10
2011,03,31,08,32,9.10
2011,03,31,08,33,9.10
2011,03,31,08,34,9.10
2011,03,31,08,35,9.10
2011,03,31,08,36,9.10
2011,03,31,08,37,9.10
2011,03,31,08,38,9.10
2011,03,31,08,39,9.10
2011,03,31,08,40,9.10
2011,03,31,08,41,9.10
2011,03,31,08,42,9.10
2011,03,31,08,43,9.10
2011,03,31,08,44,9.20
2011,03,31,08,45,9.20
2011,03,31,08,46,9.20
2011,03,31,08,47,9.20
2011,03,31,08,48,9.20
2011,03,31,08,49,9.20
2011,03,31,08,50,9.20
2011,03,31,08,51,9.20
2011,03,31,08,52,9.30
2011,03,31,08,53,9.30
2011,03,31,08,54,9.30
2011,03,31,08,55,9.30
2011,03,31,08,56,9.30
2011,03,31,08,57,9.30
2011,03,31,08,58,9.30
2011,03,31,08,59,9.40
2011,03,31,09,00,9.40
2011,03,31,09,01,9.40
2011,03,31,09,02,9.40
2011,03,31,09,03,9.40
2011,03,31,09,04,9.50
2011,03,31,09,05,9.50
2011,03,31,09,06,9.60
2011,03,31,09,07,9.60
2011,03,31,09,08,9.60
2011,03,31,09,09,9.60
2011,03,31,09,10,9.70
2011,03,31,09,11,9.70
2011,03,31,09,12,9.80
2011,03,31,09,13,9.80
2011,03,31,09,14,9.80
2011,03,31,09,15,9.80
2011,03,31,09,16,9.90
2011,03,31,09,17,9.90
2011,03,31,09,18,9.90
2011,03,31,09,19,9.90
2011,03,31,09,20,9.90
2011,03,31,09,21,10.00
2011,03,31,09,22,10.00
2011,03,31,09,23,10.00
2011,03,31,09,24,10.00
2011,03,31,09,25,10.10
2011,03,31,09,26,10.10
2011,03,31,09,27,10.10
2011,03,31,09,28,10.20
2011,03,31,09,29,10.20
2011,03,31,09,30,10.20
2011,03,31,09,31,10.30
2011,03,31,09,32,10.30
2011,03,31,09,33,10.40
2011,03,31,09,34,10.50
2011,03,31,09,35,10.60
2011,03,31,09,36,10.60
2011,03,31,09,37,10.70
2011,03,31,09,38,10.80
2011,03,31,09,39,10.80
2011,03,31,09,40,10.90
2011,03,31,09,41,10.90
2011,03,31,09,42,11.00
2011,03,31,09,43,11.10
2011,03,31,09,44,11.10
2011,03,31,09,45,11.20
2011,03,31,09,46,11.30
2011,03,31,09,47,11.30
2011,03,31,09,48,11.40
2011,03,31,09,49,11.40
2011,03,31,09,50,11.50
2011,03,31,09,51,11.60
2011,03,31,09,52,11.60
2011,03,31,09,53,11.60
2011,03,31,09,54,11.70
2011,03,31,09,55,11.70
2011,03,31,09,56,11.70
2011,03,31,09,57,11.70
2011,03,31,09,58,11.70
2011,03,31,09,59,11.70
2011,03,31,10,00,11.70
2011,03,31,10,01,11.70
2011,03,31,10,02,11.70
2011,03,31,10,03,11.70
2011,03,31,10,04,11.70
2011,03,31,10,05,11.70
2011,03,31,10,06,11.70
2011,03,31,10,07,11.70
2011,03,31,10,08,11.70
2011,03,31,10,09,11.70
2011,03,31,10,10,11.70
2011,03,31,10,11,11.70
2011,03,31,10,12,11.70
2011,03,31,10,13,11.70
2011,03,31,10,14,11.70
2011,03,31,10,15,11.70
2011,03,31,10,16,11.70
2011,03,31,10,17,11.80
2011,03,31,10,18,11.80
2011,03,31,10,19,11.80
2011,03,31,10,20,11.90
2011,03,31,10,21,11.90
2011,03,31,10,22,12.00
2011,03,31,10,23,12.00
2011,03,31,10,24,12.10
2011,03,31,10,25,12.10
2011,03,31,10,26,12.10
2011,03,31,10,27,12.20
2011,03,31,10,28,12.30
2011,03,31,10,29,12.30
2011,03,31,10,30,12.30
2011,03,31,10,31,12.40
2011,03,31,10,32,12.40
2011,03,31,10,33,12.40
2011,03,31,10,34,12.40
2011,03,31,10,35,12.40
2011,03,31,10,36,12.40
2011,03,31,10,37,12.40
2011,03,31,10,38,12.40
2011,03,31,10,39,12.40
2011,03,31,10,40,12.40
2011,03,31,10,41,12.50
2011,03,31,10,42,12.50
2011,03,31,10,43,12.50
2011,03,31,10,44,12.60
2011,03,31,10,45,12.60
2011,03,31,10,46,12.60
2011,03,31,10,47,12.70
2011,03,31,10,48,12.70
2011,03,31,10,49,12.80
2011,03,31,10,50,12.80
2011,03,31,10,51,12.80
2011,03,31,10,52,12.80
2011,03,31,10,53,12.90
2011,03,31,10,54,12.90
2011,03,31,10,55,12.90
2011,03,31,10,56,12.90
2011,03,31,10,57,12.90
2011,03,31,10,58,12.90
2011,03,31,10,59,12.90
2011,03,31,11,00,12.80
2011,03,31,11,01,12.80
2011,03,31,11,02,12.70
2011,03,31,11,03,12.70
2011,03,31,11,04,12.60
2011,03,31,11,05,12.50
2011,03,31,11,06,12.50
2011,03,31,11,07,12.40
2011,03,31,11,08,12.50
2011,03,31,11,09,12.50
2011,03,31,11,10,12.50
2011,03,31,11,11,12.50
2011,03,31,11,12,12.60
2011,03,31,11,13,12.70
2011,03,31,11,14,12.70
2011,03,31,11,15,12.80
2011,03,31,11,16,12.90
2011,03,31,11,17,13.00
2011,03,31,11,18,13.10
2011,03,31,11,19,13.20
2011,03,31,11,20,13.30
2011,03,31,11,21,13.30
2011,03,31,11,22,13.40
2011,03,31,11,23,13.50
2011,03,31,11,24,13.60
2011,03,31,11,25,13.70
2011,03,31,11,26,13.70
2011,03,31,11,27,13.80
2011,03,31,11,28,13.90
2011,03,31,11,29,14.00
2011,03,31,11,30,14.10
2011,03,31,11,31,14.20
2011,03,31,11,32,14.30
2011,03,31,11,33,14.30
2011,03,31,11,34,14.50
2011,03,31,11,35,14.50
2011,03,31,11,36,14.60
2011,03,31,11,37,14.60
2011,03,31,11,38,14.70
2011,03,31,11,39,14.70
2011,03,31,11,40,14.80
2011,03,31,11,41,14.80
2011,03,31,11,42,14.80
2011,03,31,11,43,14.90
2011,03,31,11,44,15.00
2011,03,31,11,45,15.00
2011,03,31,11,46,15.00
2011,03,31,11,47,15.10
2011,03,31,11,48,15.20
2011,03,31,11,49,15.30
2011,03,31,11,50,15.30
2011,03,31,11,51,15.40
2011,03,31,11,52,15.40
2011,03,31,11,53,15.50
2011,03,31,11,54,15.50
2011,03,31,11,55,15.60
2011,03,31,11,56,15.70
2011,03,31,11,57,15.70
2011,03,31,11,58,15.70
2011,03,31,11,59,15.80
2011,03,31,12,00,15.90
2011,03,31,12,01,15.90
2011,03,31,12,02,15.90
2011,03,31,12,03,16.00
2011,03,31,12,04,16.10
2011,03,31,12,05,16.20
2011,03,31,12,06,16.20
2011,03,31,12,07,16.20
2011,03,31,12,08,16.20
2011,03,31,12,09,16.30
2011,03,31,12,10,16.30
2011,03,31,12,11,16.30
2011,03,31,12,12,16.40
2011,03,31,12,13,16.40
2011,03,31,12,14,16.40
2011,03,31,12,15,16.40
2011,03,31,12,16,16.40
2011,03,31,12,17,16.40
2011,03,31,12,18,16.50
2011,03,31,12,19,16.60
2011,03,31,12,20,16.70
2011,03,31,12,21,16.80
2011,03,31,12,22,16.90
2011,03,31,12,23,17.00
2011,03,31,12,24,17.10
2011,03,31,12,25,17.10
2011,03,31,12,26,17.10
2011,03,31,12,27,17.10
2011,03,31,12,28,17.00
2011,03,31,12,29,17.00
2011,03,31,12,30,17.10
2011,03,31,12,31,17.10
2011,03,31,12,32,17.10
2011,03,31,12,33,17.20
2011,03,31,12,34,17.20
2011,03,31,12,35,17.30
2011,03,31,12,36,17.20
2011,03,31,12,37,17.10
2011,03,31,12,38,17.00
2011,03,31,12,39,17.00
2011,03,31,12,40,16.90
2011,03,31,12,41,17.00
2011,03,31,12,42,17.10
2011,03,31,12,43,17.10
2011,03,31,12,44,17.10
2011,03,31,12,45,17.10
2011,03,31,12,46,17.20
2011,03,31,12,47,17.20
2011,03,31,12,48,17.30
2011,03,31,12,49,17.30
2011,03,31,12,50,17.30
2011,03,31,12,51,17.40
2011,03,31,12,52,17.50
2011,03,31,12,53,17.70
2011,03,31,12,54,17.90
2011,03,31,12,55,18.00
2011,03,31,12,56,18.10
2011,03,31,12,57,18.10
2011,03,31,12,58,18.00
2011,03,31,12,59,17.90
2011,03,31,13,00,17.70
2011,03,31,13,01,17.70
2011,03,31,13,02,17.60
2011,03,31,13,03,17.60
2011,03,31,13,04,17.60
2011,03,31,13,05,17.70
2011,03,31,13,06,17.70
2011,03,31,13,07,17.80
2011,03,31,13,08,17.80
2011,03,31,13,09,17.90
2011,03,31,13,10,18.00
2011,03,31,13,11,18.10
2011,03,31,13,12,18.10
2011,03,31,13,13,18.10
2011,03,31,13,14,18.00
2011,03,31,13,15,18.00
2011,03,31,13,16,17.90
2011,03,31,13,17,17.80
2011,03,31,13,18,17.80
2011,03,31,13,19,17.70
2011,03,31,13,20,17.70
2011,03,31,13,21,17.60
2011,03,31,13,22,17.50
2011,03,31,13,23,17.50
2011,03,31,13,24,17.50
2011,03,31,13,25,17.50
2011,03,31,13,26,17.60
2011,03,31,13,27,17.60
2011,03,31,13,28,17.60
2011,03,31,13,29,17.60
2011,03,31,13,30,17.60
2011,03,31,13,31,17.60
2011,03,31,13,32,17.60
2011,03,31,13,33,17.60
2011,03,31,13,34,17.70
2011,03,31,13,35,17.80
2011,03,31,13,36,17.90
2011,03,31,13,37,18.00
2011,03,31,13,38,18.00
2011,03,31,13,39,18.00
2011,03,31,13,40,18.00
2011,03,31,13,41,18.10
2011,03,31,13,42,18.20
2011,03,31,13,43,18.30
2011,03,31,13,44,18.30
2011,03,31,13,45,18.30
2011,03,31,13,46,18.30
2011,03,31,13,47,18.20
2011,03,31,13,48,18.10
2011,03,31,13,49,18.00
2011,03,31,13,50,18.00
2011,03,31,13,51,17.90
2011,03,31,13,52,17.90
2011,03,31,13,53,18.00
2011,03,31,13,54,18.00
2011,03,31,13,55,18.00
2011,03,31,13,56,18.10
2011,03,31,13,57,18.20
2011,03,31,13,58,18.30
2011,03,31,13,59,18.30
2011,03,31,14,00,18.40
2011,03,31,14,01,18.50
2011,03,31,14,02,18.60
2011,03,31,14,03,18.70
2011,03,31,14,04,18.80
2011,03,31,14,05,18.90
2011,03,31,14,06,18.90
2011,03,31,14,07,19.00
2011,03,31,14,08,19.10
2011,03,31,14,09,19.20
2011,03,31,14,10,19.20
2011,03,31,14,11,19.40
2011,03,31,14,12,19.40
2011,03,31,14,13,19.40
2011,03,31,14,14,19.40
2011,03,31,14,15,19.50
2011,03,31,14,16,19.50
2011,03,31,14,17,19.60
2011,03,31,14,18,19.70
2011,03,31,14,19,19.80
2011,03,31,14,20,19.70
2011,03,31,14,21,19.70
2011,03,31,14,22,19.70
2011,03,31,14,23,19.70
2011,03,31,14,24,19.70
2011,03,31,14,25,19.80
2011,03,31,14,26,19.90
2011,03,31,14,27,20.00
2011,03,31,14,28,20.10
2011,03,31,14,29,20.30
2011,03,31,14,30,20.50
2011,03,31,14,31,20.60
2011,03,31,14,32,20.60
2011,03,31,14,33,20.60
2011,03,31,14,34,20.70
2011,03,31,14,35,20.70
2011,03,31,14,36,20.70
2011,03,31,14,37,20.60
2011,03,31,14,38,20.50
2011,03,31,14,39,20.40
2011,03,31,14,40,20.40
2011,03,31,14,41,20.40
2011,03,31,14,42,20.40
2011,03,31,14,43,20.40
2011,03,31,14,44,20.40
2011,03,31,14,45,20.20
2011,03,31,14,46,20.00
2011,03,31,14,47,19.80
2011,03,31,14,48,19.80
2011,03,31,14,49,19.80
2011,03,31,14,50,19.90
2011,03,31,14,51,20.00
2011,03,31,14,52,20.00
2011,03,31,14,53,20.10
2011,03,31,14,54,20.10
2011,03,31,14,55,20.10
2011,03,31,14,56,20.10
2011,03,31,14,57,19.90
2011,03,31,14,58,19.80
2011,03,31,14,59,19.60
2011,03,31,15,00,19.50
2011,03,31,15,01,19.40
2011,03,31,15,02,19.30
2011,03,31,15,03,19.20
2011,03,31,15,04,19.20
2011,03,31,15,05,19.20
2011,03,31,15,06,19.10
2011,03,31,15,07,19.00
2011,03,31,15,08,18.90
2011,03,31,15,09,18.80
2011,03,31,15,10,18.80
2011,03,31,15,11,18.70
2011,03,31,15,12,18.60
2011,03,31,15,13,18.50
2011,03,31,15,14,18.40
2011,03,31,15,15,18.40
2011,03,31,15,16,18.40
2011,03,31,15,17,18.30
2011,03,31,15,18,18.30
2011,03,31,15,19,18.20
2011,03,31,15,20,18.10
2011,03,31,15,21,18.10
2011,03,31,15,22,18.00
2011,03,31,15,23,18.00
2011,03,31,15,24,17.90
2011,03,31,15,25,17.90
2011,03,31,15,26,17.80
2011,03,31,15,27,17.70
2011,03,31,15,28,17.70
2011,03,31,15,29,17.70
2011,03,31,15,30,17.70
2011,03,31,15,31,17.60
2011,03,31,15,32,17.60
2011,03,31,15,33,17.60
2011,03,31,15,34,17.50
2011,03,31,15,35,17.40
2011,03,31,15,36,17.20
2011,03,31,15,37,17.10
2011,03,31,15,38,17.00
2011,03,31,15,39,17.00
2011,03,31,15,40,17.00
2011,03,31,15,41,17.00
2011,03,31,15,42,17.10
2011,03,31,15,43,17.10
2011,03,31,15,44,17.10
2011,03,31,15,45,17.10
2011,03,31,15,46,17.10
2011,03,31,15,47,17.00
2011,03,31,15,48,16.90
2011,03,31,15,49,16.80
2011,03,31,15,50,16.70
2011,03,31,15,51,16.60
2011,03,31,15,52,16.50
2011,03,31,15,53,16.30
2011,03,31,15,54,16.30
2011,03,31,15,55,16.20
2011,03,31,15,56,16.20
2011,03,31,15,57,16.10
2011,03,31,15,58,16.10
2011,03,31,15,59,16.10
2011,03,31,16,00,16.20
2011,03,31,16,01,16.30
2011,03,31,16,02,16.40
2011,03,31,16,03,16.60
2011,03,31,16,04,16.80
2011,03,31,16,05,16.90
2011,03,31,16,06,17.10
2011,03,31,16,07,17.40
2011,03,31,16,08,17.70
2011,03,31,16,09,17.90
2011,03,31,16,10,18.10
2011,03,31,16,11,18.30
2011,03,31,16,12,18.40
2011,03,31,16,13,18.60
2011,03,31,16,14,18.70
2011,03,31,16,15,18.80
2011,03,31,16,16,18.90
2011,03,31,16,17,19.00
2011,03,31,16,18,19.00
2011,03,31,16,19,19.10
2011,03,31,16,20,19.10
2011,03,31,16,21,19.10
2011,03,31,16,22,19.00
2011,03,31,16,23,18.90
2011,03,31,16,24,18.80
2011,03,31,16,25,18.80
2011,03,31,16,26,18.80
2011,03,31,16,27,18.80
2011,03,31,16,28,18.70
2011,03,31,16,29,18.80
2011,03,31,16,30,18.80
2011,03,31,16,31,18.90
2011,03,31,16,32,18.90
2011,03,31,16,33,18.90
2011,03,31,16,34,19.00
2011,03,31,16,35,19.10
2011,03,31,16,36,19.10
2011,03,31,16,37,19.10
2011,03,31,16,38,19.20
2011,03,31,16,39,19.30
2011,03,31,16,40,19.30
2011,03,31,16,41,19.30
2011,03,31,16,42,19.30
2011,03,31,16,43,19.30
2011,03,31,16,44,19.30
2011,03,31,16,45,19.20
2011,03,31,16,46,19.20
2011,03,31,16,47,19.20
2011,03,31,16,48,19.10
2011,03,31,16,49,19.10
2011,03,31,16,50,19.00
2011,03,31,16,51,19.00
2011,03,31,16,52,18.90
2011,03,31,16,53,18.80
2011,03,31,16,54,18.80
2011,03,31,16,55,18.70
2011,03,31,16,56,18.60
2011,03,31,16,57,18.50
2011,03,31,16,58,18.50
2011,03,31,16,59,18.40
2011,03,31,17,00,18.40
2011,03,31,17,01,18.30
2011,03,31,17,02,18.20
2011,03,31,17,03,18.10
2011,03,31,17,04,18.00
2011,03,31,17,05,17.90
2011,03,31,17,06,17.90
2011,03,31,17,07,17.80
2011,03,31,17,08,17.80
2011,03,31,17,09,17.60
2011,03,31,17,10,17.40
2011,03,31,17,11,17.30
2011,03,31,17,12,17.20
2011,03,31,17,13,17.00
2011,03,31,17,14,16.90
2011,03,31,17,15,16.80
2011,03,31,17,16,16.80
2011,03,31,17,17,16.80
2011,03,31,17,18,16.70
2011,03,31,17,19,16.70
2011,03,31,17,20,16.80
2011,03,31,17,21,16.80
2011,03,31,17,22,16.80
2011,03,31,17,23,16.80
2011,03,31,17,24,16.80
2011,03,31,17,25,16.80
2011,03,31,17,26,16.80
2011,03,31,17,27,16.80
2011,03,31,17,28,16.80
2011,03,31,17,29,16.80
2011,03,31,17,30,16.80
2011,03,31,17,31,16.80
2011,03,31,17,32,16.80
2011,03,31,17,33,16.80
2011,03,31,17,34,16.80
2011,03,31,17,35,16.80
2011,03,31,17,36,16.70
2011,03,31,17,37,16.70
2011,03,31,17,38,16.60
2011,03,31,17,39,16.50
2011,03,31,17,40,16.40
2011,03,31,17,41,16.30
2011,03,31,17,42,16.20
2011,03,31,17,43,16.20